COSMOS 1275 DEB, 13021

Orbit data source: Space-Track

COSMOS 1275 DEB, 13021 is space debris in LEO originally from a launch on Thu, 04 Jun 1981 UTC launched from the Plesetsk Missile And Space Complex (PKMTR). Debris objects in space refer to the collection of defunct objects orbiting the Earth. Examples of debris include non-operational satellites, rocket bodies, and fragments generated from explosions, collisions, or faulty payload assembly.

Loading next visibility...
Identifier
13021, 1981-053ET
Orbit
LEO
Country
Flag of CISCIS
Related business
Manufacturer
Unknown
Mission
Spacecraft
Bus & Motor
Unknown
Mass
Unknown
Launch date (UTC)
1981-06-04 (45 years ago)
Launch vehicle
Unknown
Launch site
Plesetsk Missile And Space Complex (PKMTR)
Object type
Payload
Rocket body
Debris
Shape & HBR
Unknown shape, 0.1 m
Radar Cross Section
Medium (>0.1 m² and <1 m²)

Expand to show TLE details & history
Last TLE update: 1 day ago

TLE from 1 day ago
0 COSMOS 1275 DEB
1 13021U 81053ET  26171.33357741  .00000976  00000-0  58204-3 0  9998
2 13021  83.1435 285.9329 0021992 178.5546 207.3830 14.06193524260129
Epoch: 2026-06-20T08:00Z
TLE epoch observation values (Epoch: 2026-06-20T08:00:21.088Z)
Latitude
25.65499°
Longitude
-99.41124°
Altitude
889.742 km
Speed
7.402 km/s
True Right ascension
19h 16m 54s
True Declination
25° 31' 25"
Sunlit
Object was in full shadow at epoch
Visualization orbit readout
Latitude
Unknown
Longitude
Unknown
Altitude
Unknown
Speed
Unknown
Apparent Right ascension
Unknown
Apparent Declination
Unknown
Sunlit
N/A
Visualization observer readout
Local Sidereal Time
06:13:29
Azimuth
Unknown
Elevation
Unknown
Doppler factor
Unknown
Orbital elements
Apogee altitude
885.464 km
Perigee altitude
853.586 km
Semi-major axis
7,247.662 km
Eccentricity
0.0022
Inclination
83.1435°
RAAN
285.9329°
Arg. of periapsis
178.5546°
True anomaly
207.26737°
Mean anomaly
207.383°
Eccentric anomaly
207.32516°
Mean motion
3.5176 °/min
Orbital period
102.34 mins
BSTAR
0.00058204
Loading maneuver chart data...
Computing Atmospheric mass density...

Documentation

Showing up to 5 results
|